User: anonymous   Login
Location: Unspecified
(0.0000°N, 0.0000°E)
Time: 00:25:54
(UTC+00:00)
Language:

WGS F1 (USA 195) - Orbit

View from above orbital plane
View from above orbital plane
View from above satellite
View from above satellite

Ground track
Ground track

The orbit data is extracted from the following two-line orbital elements,

1 32258U 07046A   17015.41718039 0.00000000  00000-0  00000-0 0    07
2 32258   0.0448  84.9221 0003453 246.9285 113.0715  1.00270000    03
Epoch (UTC): 15 January 2017 10:00:44
Eccentricity: 0.0003453
inclination: 0.0448°
perigee height: 35772 km
apogee height: 35801 km
right ascension of ascending node: 84.9221°
argument of perigee: 246.9285°
revolutions per day: 1.00270000
mean anomaly at epoch: 113.0715°
orbit number at epoch: 0

The dashed part of the orbit path shows where the satellite is in the earth's shadow,  

DLR